Seattle, WA
on Monday, February 25, 2013

Monday
Previous Day Next Day
Daily Summary
 ActualAverageRecord
Temperature
Mean Temperature °F 44°F  
Max Temperature 51°F 51°F 64°F (1992)
Min Temperature 38°F 37°F 20°F (2011)
Degree Days
Heating Degree Days 20 21  
Month to date heating degree days 510 543  
Since 1 July heating degree days 3084 3192  
Cooling Degree Days 0 0  
Month to date cooling degree days 0 0  
Year to date cooling degree days 0 0  
Moisture
Dew Point 35°F   
Average Humidity 65    
Maximum Humidity 89    
Minimum Humidity 41    
Precipitation
Precipitation 0.09 in 0.13 in 0.98 in (1948)
Month to date precipitation 1.06 3.13  
Year to date precipitation 5.22 8.70  
Snow
Snow 0.00 in in T in (2009)
Month to date snowfall 0.0  
Since 1 July snowfall 0.6  
Snow Depth 0.00 in   
Wind
Wind Speed 16 mph   
Max Wind Speed 29 mph   
Max Gust Speed 39 mph   
Visibility 10 miles   
Events Rain   

Key: T is trace of precipitation, MM is missing value
Source: NWS Daily Summary
Time(PST)TemperatureDew PointHumidity Pressure Visibility Wind DirectionWind SpeedGust SpeedPrecipitationEvents Conditions
12:26 AM 44.6°F 35.6°F 71% 29.94 in 10.0 miles South 15.0 mph 26.5 mph 0.02 in Rain Light Rain
12:53 AM 43.0°F 36.0°F 76% 29.95 in 10.0 miles South 12.7 mph 21.9 mph 0.03 in Rain Light Rain
1:53 AM 42.1°F 37.9°F 85% 29.93 in 8.0 miles South 10.4 mph - 0.04 in Rain Light Rain
2:53 AM 42.1°F 39.0°F 89% 29.93 in 10.0 miles South 15.0 mph 23.0 mph 0.02 in Rain Light Rain
3:13 AM 42.8°F 39.2°F 87% 29.90 in 10.0 miles SSW 18.4 mph 27.6 mph N/A   Overcast
3:53 AM 43.0°F 39.0°F 86% 29.94 in 10.0 miles SSW 21.9 mph 28.8 mph N/A   Overcast
4:17 AM 42.8°F 37.4°F 81% 29.92 in 10.0 miles South 23.0 mph 28.8 mph N/A   Overcast
4:35 AM 42.8°F 37.4°F 81% 29.94 in 10.0 miles SSW 18.4 mph 26.5 mph N/A   Overcast
4:53 AM 43.0°F 37.9°F 82% 29.97 in 10.0 miles South 19.6 mph 28.8 mph N/A   Overcast
5:33 AM 42.8°F 37.4°F 81% 29.95 in 10.0 miles South 19.6 mph 28.8 mph N/A   Overcast
5:45 AM 42.8°F 37.4°F 81% 29.96 in 10.0 miles SSW 19.6 mph 27.6 mph N/A   Overcast
5:53 AM 43.0°F 37.9°F 82% 29.98 in 10.0 miles SSW 23.0 mph 31.1 mph N/A   Overcast
6:53 AM 42.1°F 37.0°F 82% 29.99 in 10.0 miles SSW 20.7 mph 29.9 mph N/A   Overcast
7:53 AM 42.1°F 37.0°F 82% 30.00 in 10.0 miles SW 19.6 mph 35.7 mph N/A   Overcast
8:18 AM 42.8°F 37.4°F 81% 29.99 in 10.0 miles SSW 20.7 mph 29.9 mph N/A   Overcast
8:53 AM 43.0°F 37.0°F 80% 30.03 in 10.0 miles SW 23.0 mph 32.2 mph N/A   Mostly Cloudy
9:53 AM 44.1°F 37.0°F 76% 30.05 in 10.0 miles SSW 19.6 mph 27.6 mph N/A   Mostly Cloudy
10:10 AM 44.6°F 37.4°F 76% 30.03 in 10.0 miles SSW 20.7 mph 28.8 mph N/A   Mostly Cloudy
10:53 AM 44.1°F 36.0°F 73% 30.06 in 10.0 miles SSW 19.6 mph 29.9 mph N/A   Mostly Cloudy
11:53 AM 46.9°F 36.0°F 66% 30.09 in 10.0 miles SSW 18.4 mph 28.8 mph N/A   Mostly Cloudy
12:53 PM 48.9°F 34.0°F 56% 30.10 in 10.0 miles SW 21.9 mph 36.8 mph N/A   Mostly Cloudy
1:53 PM 50.0°F 32.0°F 50% 30.12 in 10.0 miles WSW 21.9 mph 34.5 mph N/A   Partly Cloudy
2:53 PM 51.1°F 28.0°F 41% 30.13 in 10.0 miles SW 17.3 mph 25.3 mph N/A   Partly Cloudy
3:53 PM 48.9°F 33.1°F 54% 30.16 in 10.0 miles SSW 17.3 mph 28.8 mph N/A   Scattered Clouds
4:53 PM 46.9°F 30.0°F 52% 30.19 in 10.0 miles SW 9.2 mph 20.7 mph N/A   Scattered Clouds
5:53 PM 43.0°F 33.1°F 68% 30.21 in 10.0 miles SSW 10.4 mph - N/A   Scattered Clouds
6:53 PM 42.1°F 33.1°F 70% 30.24 in 10.0 miles SSW 15.0 mph - N/A   Scattered Clouds
7:53 PM 42.1°F 33.1°F 70% 30.26 in 10.0 miles SSW 13.8 mph - N/A   Partly Cloudy
8:53 PM 41.0°F 33.1°F 73% 30.29 in 10.0 miles SSW 6.9 mph - N/A   Partly Cloudy
9:53 PM 39.0°F 32.0°F 76% 30.31 in 10.0 miles South 8.1 mph - N/A   Partly Cloudy
10:53 PM 39.0°F 32.0°F 76% 30.32 in 10.0 miles SSE 9.2 mph - N/A   Partly Cloudy
11:46 PM 39.2°F 33.8°F 81% 30.30 in 10.0 miles South 9.2 mph - N/A   Mostly Cloudy
11:53 PM 39.0°F 33.1°F 79% 30.33 in 10.0 miles South 6.9 mph - N/A   Mostly Cloudy
Moon Phase
Feb. 25 Feb. 25 Mar. 04 Mar. 11 Mar. 19
Sunrise:06:56 AM (PST) Moon Rise:06:12 PM (PST)
Sunset:05:48 PM (PST) Moon Set:06:26 AM (PST)

Copyright © 2014 The Weather Underground, Inc.